Location: Kershaw
(34.5481°N, 80.5823°W)
Time: 07:32:44
(UTC+00:00)

Transit 2A Rocket - Pass Details

Date: 05 October 2022
Orbit: 589 x 911 km, 66.7° (Epoch: 04 December)

Event Time Altitude Azimuth Distance (km) Brightness Sun altitude
Exits shadow 10:39:01 - 228° (SW) 2,428 7.2 -9.3°
Reaches altitude 10° 10:40:20 10° 233° (SW) 1,930 6.6 -9.0°
Maximum altitude 10:44:18 36° 301° (WNW) 940 5.1 -8.2°
Drops below altitude 10° 10:48:16 10° 9° (N) 1,923 7.2 -7.4°
Sets 10:50:40 0° 18° (NNE) 2,843 8.2 -6.9°
